This demonstration page uses our WeatherBlox Daily Observations layout. Learn more.

Left ArrowRight Arrow

34.74481, -87.66753

Hourly Observations for October 8, 2019

Temp ( °F °C ) Dew Point ( °F °C ) Humidity (%) Winds ( mph kmh ) Pressure ( in mb ) Visibility ( mi km ) Precip ( " mm )
12:53 am 00:53 Cloudy 61 16.1 56 13.3 84 84 NE 10 17 30.10 1019 10 16 0.00 0.00
1:53 am 01:53 Cloudy 61 16.1 56 13.3 84 84 ENE 8 13 30.09 1019 10 16 0.00 0.00
2:53 am 02:53 Cloudy 61 16.1 56 13.3 84 84 NE 8 13 30.08 1019 10 16 0.00 0.00
3:53 am 03:53 Cloudy 61 16.1 56 13.3 84 84 NE 8 13 30.08 1019 10 16 0.00 0.00
4:53 am 04:53 Cloudy 61 16.1 56 13.3 84 84 ENE 8 13 30.08 1019 10 16 0.00 0.00
5:53 am 05:53 Cloudy 61 16.1 56 13.3 84 84 ENE 3 6 30.09 1019 10 16 0.00 0.00
6:53 am 06:53 Cloudy 61 16.1 56 13.3 84 84 NE 6 9 30.08 1019 10 16 0.00 0.00
7:53 am 07:53 Cloudy 61 16.1 56 13.3 84 84 NE 6 9 30.09 1019 10 16 0.00 0.00
8:53 am 08:53 Cloudy 61 16.1 57 13.9 87 87 NNE 6 9 30.11 1020 10 16 0.00 0.00
9:53 am 09:53 Cloudy 61 16.1 57 13.9 87 87 NNE 5 7 30.12 1020 10 16 0.00 0.00
10:53 am 10:53 Cloudy 62 16.7 57 13.9 84 84 NE 6 9 30.12 1020 10 16 0.00 0.00
11:53 am 11:53 Cloudy 63 17.2 57 13.9 81 81 E 6 9 30.11 1020 10 16 0.00 0.00
12:01 pm 12:01 Cloudy 63 17.2 57 13.9 81 81 E 6 9 30.10 1019 10 16 0.00 0.00
12:53 pm 12:53 Cloudy 65 18.3 58 14.4 78 78 VRB 3 6 30.09 1019 10 16 0.00 0.00
1:53 pm 13:53 Cloudy 65 18.3 57 13.9 76 76 ENE 5 7 30.07 1018 10 16 0.00 0.00
2:32 pm 14:32 Cloudy 67 19.4 58 14.4 73 73 Calm 30.07 1018 10 16 0.00 0.00
2:53 pm 14:53 Cloudy 67 19.4 58 14.4 73 73 VRB 5 7 30.06 1018 10 16 0.00 0.00
3:53 pm 15:53 Cloudy 68 20 58 14.4 70 70 VRB 5 7 30.06 1018 10 16 0.00 0.00
4:53 pm 16:53 Cloudy 68 20 59 15 73 73 NW 3 6 30.05 1018 10 16 0.00 0.00
5:53 pm 17:53 Cloudy 67 19.4 59 15 76 76 VRB 3 6 30.05 1018 10 16 0.00 0.00
6:53 pm 18:53 Cloudy 67 19.4 59 15 76 76 undefined N/A 30.06 1018 10 16 0.00 0.00
7:53 pm 19:53 Cloudy 66 18.9 59 15 78 78 E 6 9 30.06 1018 10 16 0.00 0.00
8:45 pm 20:45 Partly Cloudy 63 17.2 58 14.4 84 84 E 3 6 30.07 1018 10 16 0.00 0.00
8:53 pm 20:53 Mostly Clear 63 17.2 58 14.4 84 84 E 3 6 30.07 1018 10 16 0.00 0.00
9:53 pm 21:53 Clear 61 16.1 57 13.9 87 87 Calm 30.08 1019 10 16 0.00 0.00
10:53 pm 22:53 Clear 59 15 57 13.9 93 93 Calm 30.07 1018 10 16 0.00 0.00
11:53 pm 23:53 Clear 59 15 56 13.3 90 90 Calm 30.06 1018 9 14 0.00 0.00

Powered by AerisWeather